TimeCST,TemperatureF,Dew PointF,Humidity,Sea Level PressureIn,VisibilityMPH,Wind Direction,Wind SpeedMPH,Gust SpeedMPH,PrecipitationIn,Events,Conditions,WindDirDegrees,DateUTC
12:01 AM,15.8,12.2,86,30.01,1.2,SSW,3.5,-,0.00,Snow,Light Snow,200,2013-02-03 06:01:00
12:09 AM,15.8,12.2,86,30.01,3.0,Calm,Calm,-,0.00,Snow,Light Snow,0,2013-02-03 06:09:00
12:18 AM,15.8,12.2,86,30.00,5.0,Calm,Calm,-,0.00,Snow,Light Snow,0,2013-02-03 06:18:00
12:52 AM,16.0,12.0,84,30.03,5.0,South,3.5,-,0.00,Snow,Light Snow,180,2013-02-03 06:52:00
1:52 AM,17.1,12.9,84,30.01,4.0,South,6.9,-,0.01,,Overcast,170,2013-02-03 07:52:00
2:39 AM,17.6,14.0,86,29.96,4.0,SSE,5.8,-,N/A,,Overcast,160,2013-02-03 08:39:00
2:52 AM,17.1,15.1,92,30.00,3.0,South,4.6,-,N/A,,Overcast,170,2013-02-03 08:52:00
2:54 AM,17.6,15.8,93,29.96,2.5,South,4.6,-,N/A,,Overcast,170,2013-02-03 08:54:00
3:13 AM,17.6,15.8,93,29.96,4.0,South,5.8,-,N/A,,Overcast,180,2013-02-03 09:13:00
3:52 AM,17.1,14.0,88,29.99,6.0,SW,5.8,-,N/A,,Overcast,220,2013-02-03 09:52:00
4:52 AM,19.0,16.0,88,30.01,5.0,West,10.4,-,N/A,,Overcast,270,2013-02-03 10:52:00
5:40 AM,21.2,17.6,86,29.97,7.0,WNW,16.1,23.0,N/A,,Overcast,300,2013-02-03 11:40:00
5:52 AM,21.0,17.1,85,30.02,6.0,NW,20.7,25.3,N/A,,Overcast,320,2013-02-03 11:52:00
6:16 AM,21.2,17.6,86,29.99,4.0,NW,18.4,26.5,0.00,,Overcast,310,2013-02-03 12:16:00
6:52 AM,21.0,17.1,85,30.04,3.0,WNW,17.3,-,0.00,Snow,Light Snow,300,2013-02-03 12:52:00
7:14 AM,19.4,15.8,86,30.01,4.0,NW,19.6,25.3,0.00,Snow,Light Snow,310,2013-02-03 13:14:00
7:29 AM,19.4,14.0,80,30.03,5.0,NW,16.1,26.5,0.00,,Haze,310,2013-02-03 13:29:00
7:52 AM,19.9,14.0,78,30.08,5.0,WNW,18.4,-,0.00,,Haze,300,2013-02-03 13:52:00
8:06 AM,19.4,14.0,80,30.04,2.0,WNW,19.6,25.3,0.00,Snow,Light Snow,300,2013-02-03 14:06:00
8:17 AM,17.6,12.2,79,30.05,4.0,WNW,21.9,28.8,0.00,,Haze,300,2013-02-03 14:17:00
8:52 AM,17.1,10.9,77,30.10,3.0,WNW,20.7,28.8,0.00,,Haze,300,2013-02-03 14:52:00
9:52 AM,17.1,10.0,74,30.12,8.0,NW,17.3,-,N/A,,Partly Cloudy,310,2013-02-03 15:52:00
10:52 AM,17.1,10.0,74,30.14,10.0,WNW,18.4,-,N/A,,Clear,290,2013-02-03 16:52:00
11:52 AM,19.0,10.9,71,30.14,10.0,WNW,20.7,-,N/A,,Clear,290,2013-02-03 17:52:00
12:52 PM,21.0,12.9,71,30.14,10.0,West,17.3,-,N/A,,Clear,270,2013-02-03 18:52:00
1:52 PM,23.0,14.0,68,30.12,10.0,West,19.6,-,N/A,,Scattered Clouds,270,2013-02-03 19:52:00
2:52 PM,23.0,12.9,65,30.11,10.0,West,18.4,-,N/A,,Overcast,270,2013-02-03 20:52:00
3:52 PM,21.9,14.0,72,30.10,10.0,WSW,15.0,-,N/A,,Overcast,250,2013-02-03 21:52:00
4:52 PM,23.0,15.1,72,30.08,10.0,WSW,11.5,-,N/A,,Overcast,250,2013-02-03 22:52:00
5:52 PM,21.0,14.0,74,30.08,10.0,WSW,5.8,-,N/A,,Mostly Cloudy,240,2013-02-03 23:52:00
6:52 PM,19.9,14.0,78,30.07,10.0,Calm,Calm,-,N/A,,Partly Cloudy,0,2013-02-04 00:52:00
7:52 PM,19.0,14.0,81,30.07,10.0,South,4.6,-,N/A,,Clear,170,2013-02-04 01:52:00
8:52 PM,21.0,15.1,78,30.07,10.0,ESE,4.6,-,N/A,,Partly Cloudy,110,2013-02-04 02:52:00
9:52 PM,19.0,12.9,77,30.05,9.0,ESE,6.9,-,N/A,,Clear,120,2013-02-04 03:52:00
10:52 PM,21.9,15.1,75,30.00,10.0,ESE,6.9,-,N/A,,Overcast,120,2013-02-04 04:52:00
11:52 PM,23.0,16.0,74,29.97,10.0,SE,9.2,-,N/A,,Overcast,130,2013-02-04 05:52:00